{"data":{"norad_id":43246,"epoch":"2026-05-24T19:03:11.764224Z","epoch_age_seconds":86077,"freshness":"FRESH","line1":"1 43246U 18029B   26144.79388616 -.00000086  00000+0  00000+0 0  9997","line2":"2 43246  54.2138 300.7925 0004375  39.9208 320.0884  1.86228954 55448","mean_motion":1.86228954,"eccentricity":0.0004375,"inclination_deg":54.2138,"raan_deg":300.7925,"arg_perigee_deg":39.9208,"mean_anomaly_deg":320.0884,"bstar":0,"rev_number":5544,"period_min":773.24173769456,"perigee_km":21516.046910379,"apogee_km":21540.465004217,"semimajor_km":27906.392957298,"source":"CELESTRAK","updated_at":"2026-05-25T13:38:24.218277Z"}}